Regional Weather Roundup
Issued by NWS

Home | Current Version | Previous Version | Text Only | Print | Product List | Glossary Off
Versions: 1 2 3 4 5 6 7 8 9 10 11 12 13 14 15 16 17 18 19 20 21 22 23 24 25 26 27 28 29 30 31 32 33 34 35 36 37 38 39 40 41 42 43 44 45 46 47 48 49 50

000
ASUS43 KDMX 231406
RWRIA

WEATHER ROUNDUP FOR IOWA
NATIONAL WEATHER SERVICE DES MOINES IA
800 AM CST FRI FEB 23 2018

NOTE: "FAIR" INDICATES FEW OR NO CLOUDS BELOW 12,000 FEET WITH NO
SIGNIFICANT WEATHER AND/OR OBSTRUCTIONS TO VISIBILITY.

* - THESE STATIONS ARE NOT NWS STATIONS...THUS NOT UNDER NWS
QUALITY CONTROL.  THEY ALSO DO NOT REPORT WEATHER SUCH
AS PRECIPITATION OR FOG.

IAZ001>003-012>014-020>022-031>034-043>046-231500-
   NORTHWEST IOWA

CITY           SKY/WX    TMP DP  RH WIND       PRES   REMARKS
CARROLL *      CLOUDY    21  19  93 W8        30.21R WCI  12
CHEROKEE *     CLOUDY    20  20 100 W12       30.21R FOG     WCI   8
DENISON *      CLOUDY    19  19 100 W6        30.23R FOG     WCI  11
LE MARS *      CLOUDY    19  18  93 NW14      30.22R FOG     WCI   6
ORANGE CITY *  CLOUDY    18  18 100 NW12      30.18R FOG     WCI   5
SHELDON *      CLOUDY    19  19 100 NW16      30.16S WCI   5
SIOUX CITY     CLOUDY    20  17  88 NW13      30.22R WCI   7
SPENCER        CLOUDY    20  16  84 W16       30.17R WCI   6
STORM LAKE *   FOG       18  18 100 NW15      30.18R VSB 3/4 WCI   3
$$

IAZ055>058-069>071-079>083-090>094-231500-
   SOUTHWEST IOWA

CITY           SKY/WX    TMP DP  RH WIND       PRES   REMARKS
ATLANTIC *     CLOUDY    25  25 100 NW6       30.23R WCI  18
AUDUBON *      CLEAR     23  19  86 CALM      30.22R
CLARINDA *     CLEAR     27  27 100 CALM      30.27R
COUNCIL BLFS * CLOUDY    23  23 100 NW8       30.22S FOG     WCI  14
CRESTON *      CLEAR     25  23  93 W6        30.23R WCI  18
HARLAN  *      CLOUDY    19  19 100 W5        30.26R WCI  13
LAMONI         CLOUDY    31  27  85 NW12      30.22R WCI  22
RED OAK *      PTCLDY    23  23 100 CALM      30.24S FOG
SHENANDOAH *   PTCLDY    25  25 100 CALM      30.26R FOG
$$

IAZ047>049-059>061-072>074-084-231500-
   CENTRAL IOWA

CITY           SKY/WX    TMP DP  RH WIND       PRES   REMARKS
AMES           SUNNY     28  23  81 W10       30.21R WCI  19
ANKENY *       SUNNY     28  25  86 NW13      30.22R WCI  18
BOONE *        PTCLDY    27  25  93 MISG      30.19R FOG
CHARITON *     CLOUDY    32  28  86 NW9       30.21R WCI  24
DES MOINES     MOSUNNY   30  24  78 NW12      30.22R WCI  20
GRINNELL*      CLOUDY    32  30  92 W13       30.19R WCI  22
KNOXVILLE *    CLOUDY    32  28  86 NW12      30.19R WCI  23
MARSHALLTOWN   MOSUNNY   30  26  85 W14       30.19R WCI  19
NEWTON *       CLOUDY    30  28  93 W14       30.20R WCI  20
PELLA *        CLOUDY    32  32  99 NW7       30.22R WCI  26
PERRY *        FAIR      28  26  93 W8        30.22R WCI  19
$$

IAZ004>006-015-016-023>025-035-036-231500-
   NORTH CENTRAL IOWA

CITY           SKY/WX    TMP DP  RH WIND       PRES   REMARKS
ALGONA *       CLOUDY    23 N/A N/A W10       30.17R WCI  12
CLARION *      MOCLDY    21  21 100 NW14      30.17R FOG     WCI   8
ESTHERVILLE    CLOUDY    18  16  92 W17       30.16R WCI   3
FORT DODGE *   PTCLDY    20  18  92 W7        30.20R WCI  11
MASON CITY     CLOUDY    25  21  85 W16       30.16R WCI  12
FOREST CITY *  CLOUDY    27  23  86 W8        30.16R WCI  18
WEBSTER CITY * CLEAR     21  19  93 W7        30.17R WCI  13
IOWA FALLS *   FAIR      28  25  89 W13       30.18R WCI  17
$$

IAZ007>011-017>019-026>030-037>042-050>054-066-231500-
   NORTHEAST IOWA

CITY           SKY/WX    TMP DP  RH WIND       PRES   REMARKS
CEDAR RAPIDS   CLOUDY    34  32  92 W13       30.16R WCI  25
CHARLES CITY * FAIR      28  28 100 W15       30.14R WCI  17
CLINTON *      CLOUDY    35  33  92 W17       30.16R WCI  25
DECORAH *      CLOUDY    32  30  93 W12G21    30.10R WCI  23
DUBUQUE        CLOUDY    33  30  88 W15G24    30.12R WCI  23
MONTICELLO *   CLOUDY    34  32  93 W20       30.14R WCI  22
OELWEIN *      CLOUDY    32  32 100 W14       30.14R WCI  22
WATERLOO       FAIR      30  25  81 W12       30.16R WCI  20
$$

IAZ064-065-067-068-078-231500-
   EAST CENTRAL IOWA

CITY           SKY/WX    TMP DP  RH WIND       PRES   REMARKS
DAVENPORT      CLOUDY    36  32  85 W12       30.19R WCI  28
IOWA CITY      CLOUDY    35  31  85 W15       30.20R WCI  25
MT. PLEASANT * CLOUDY    32  32 100 W10G20    30.21R WCI  24
MUSCATINE *    CLOUDY    36  32  87 W12G17    30.21R WCI  27
QUAD CITIES    CLOUDY    37  34  89 W13G23    30.17R WCI  29
$$

IAZ062-063-075>077-085>089-095>099-231500-
   SOUTHEAST IOWA

CITY           SKY/WX    TMP DP  RH WIND       PRES   REMARKS
BURLINGTON     CLOUDY    35  33  92 W9        30.20R WCI  28
FAIRFIELD *    CLOUDY    34  32  93 W7        30.20R WCI  28
FORT MADISON * CLOUDY    34  34 100 W12G17    30.22R WCI  25
KEOKUK *       CLOUDY    34  34 100 W15       30.22R WCI  24
OSKALOOSA *    CLOUDY    32  32 100 NW12      30.21R WCI  23
OTTUMWA        CLOUDY    34  34 100 W10       30.20R WCI  26
WASHINGTON *   CLOUDY    34  34 100 W10G18    30.21R WCI  26
$$

ABBREVIATIONS USED IN REMARKS
   TC - TEMPERATURES IN CELSIUS
  WCI - WIND CHILL INDEX
   HX - HEAT INDEX
  VSB - VISIBILITY
$$




USA.gov is the U.S. government's official web portal to all federal, state and local government web resources and services.